Starlink 5349

operational
NORAD ID: 56512 Int'l Des: 2023-065 Owner: SPXS Country: US Constellation: starlink
LEOCIRCULAR

关于 Starlink 5349

正在加载描述...

实时位置

正在加载3D地球...

即将过境

高度历史

Altitude vs Time

uPlot chart will show altitude changes over time

两行轨道根数

1 56512U 23065K 25259.79076202 .00000009 00000-0 15712-4 0 9990
2 56512 43.0032 75.4388 0001056 272.2151 87.8570 15.02530972130463
Epoch: Sep 16, 2025 • Age: 29 hours

当前状态

高度 558.3 km
速度 7.59 km/s
星下点 14.89°N, 91.31°E
发射日期 May 14, 2023
运行时间 2.3 years
类型 internet

技术详情

分类 Payload
质量 305.00 kg
干质量 290.00 kg
总质量 305.00 kg
长度 0.20 m
直径 2.80 m
跨度 9.00 m
形状 Box + pan
制造商 SPXS
平台类型 Starlink
阶段状态 In Orbit
所有者/国家 SPXS/US

大型星座

Loading constellations...